Location: American Medical Response
(33.3472°N, 96.5511°W)
Time: 06:38:28
(UTC+00:00)

Cosmos 2297 Rocket - Pass Details

Date: 08 December 2021
Orbit: 838 x 845 km, 71.0° (Epoch: 17 January)

Event Time Altitude Azimuth Distance (km) Brightness Sun altitude
Rises 12:27:11 0° 351° (N) 3,405 5.1 -10.5°
Reaches altitude 10° 12:29:59 10° 3° (N) 2,468 4.4 -10.0°
Maximum altitude 12:34:50 29° 62° (ENE) 1,516 4.0 -9.0°
Drops below altitude 10° 12:39:39 10° 121° (ESE) 2,459 6.3 -8.1°
Sets 12:42:25 0° 132° (SE) 3,390 6.9 -7.6°
